カタログに戻る

USA 236

運用中軍事GEO
NORAD 38466·PAYLOAD·🇺🇸 United States

打ち上げ Jun 20, 2012 から Cape Canaveral Space Force Station

Loading…

TLE

最新Source: Mike McCants

元期: Sep 15, 2026, 06:57 UTC

1 38466U 12033A   26258.29013582  .00000000  00000-0  00000-0 0    02
2 38466   8.1586  75.0743 0006111 203.8100 156.1731  1.00270000  5746

AllMySatでUSA 236をリアルタイム追跡

Download on the App Store